This is the latest recevied weather packets stored in our database for station/object N8WJW. If no packets are shown the sender has not sent any weather packets the latest 10 day(s).
| Time | Temp. | Humidity | Pressure | Rain* | Wind** | Luminosity | Snow |
|---|---|---|---|---|---|---|---|
| 1777942319 | 19.44° C | 60% | 1005.4 hPa | 0 mm | - | 0 W/m² | - |
| 1777942016 | 20° C | 60% | 1005.4 hPa | 0 mm | - | 0 W/m² | - |
| 1777941713 | 20° C | 59% | 1005.2 hPa | 0 mm | - | 0 W/m² | - |
| 1777941410 | 20° C | 59% | 1005.3 hPa | 0 mm | - | 0 W/m² | - |
| 1777941108 | 20° C | 58% | 1005.5 hPa | 0 mm | - | 1 W/m² | - |
| 1777940804 | 20° C | 59% | 1005.4 hPa | 0 mm | - | 2 W/m² | - |
| 1777940502 | 20° C | 59% | 1005.2 hPa | 0 mm | - | 2 W/m² | - |
| 1777940198 | 20.56° C | 58% | 1005.2 hPa | 0 mm | - | 3 W/m² | - |
| 1777939896 | 20.56° C | 58% | 1005 hPa | 0 mm | - | 5 W/m² | - |
| 1777939593 | 20.56° C | 57% | 1005.1 hPa | 0 mm | - | 6 W/m² | - |
| 1777939291 | 20.56° C | 58% | 1004.9 hPa | 0 mm | - | 7 W/m² | - |
| 1777938987 | 20.56° C | 59% | 1004.9 hPa | 0 mm | - | 12 W/m² | - |
| 1777938683 | 20.56° C | 59% | 1004.8 hPa | 0 mm | - | 20 W/m² | - |
| 1777938381 | 20.56° C | 59% | 1004.8 hPa | 0 mm | - | 28 W/m² | - |
| 1777938078 | 20.56° C | 60% | 1004.6 hPa | 0 mm | - | 33 W/m² | - |
| 1777937774 | 20.56° C | 59% | 1004.7 hPa | 0 mm | - | 28 W/m² | - |
| 1777937470 | 20.56° C | 59% | 1004.7 hPa | 0 mm | - | 36 W/m² | - |
| 1777937168 | 20.56° C | 59% | 1004.7 hPa | 0 mm | - | 42 W/m² | - |
| 1777936865 | 20.56° C | 59% | 1004.3 hPa | 0 mm | - | 49 W/m² | - |
| 1777936561 | 20.56° C | 60% | 1004.4 hPa | 0 mm | - | 47 W/m² | - |
| 1777936257 | 20.56° C | 61% | 1004.9 hPa | 0 mm | - | 57 W/m² | - |
| 1777935953 | 20.56° C | 63% | 1004.9 hPa | 0 mm | - | 59 W/m² | - |
| 1777935653 | 20° C | 65% | 1005.1 hPa | 0 mm | - | 42 W/m² | - |
| 1777935350 | 20° C | 66% | 1005 hPa | 0 mm | - | 42 W/m² | - |
| 1777935046 | 20° C | 69% | 1005 hPa | 0 mm | - | 44 W/m² | - |
* Rain latest hour (hover to see other rain measurements)
** Current wind speed in m/s (hover to see current wind gust speed)